DW2806 Weather Reports


time (UTC)temp
F
wind
direction
speed
knots
gust
knots
rain 1hr
in
rain 24hr
in
rain mn
in
humidity
%
barometer
mb
20260506103002 61 304 0.0 1.7 0.00 0.00 0.00 83 1025.7
20260506101501 61 210 0.0 0.0 0.00 0.00 0.00 84 1025.7
20260506094559 60 279 0.0 0.0 0.00 0.00 0.00 83 1025.7
20260506093056 60 279 0.0 1.7 0.00 0.00 0.00 83 1025.7
20260506091600 61 287 0.0 0.0 0.00 0.00 0.00 82 1025.7
20260506090053 61 239 0.0 0.0 0.00 0.00 0.00 81 1025.7
20260506084554 61 267 0.0 3.5 0.00 0.00 0.00 81 1025.7
20260506083052 61 316 0.0 1.7 0.00 0.00 0.00 80 1025.7
20260506081552 62 336 0.0 3.5 0.00 0.00 0.00 79 1025.7
20260506073047 62 249 0.0 0.0 0.00 0.00 0.00 78 1025.7
20260506071545 62 246 0.0 4.3 0.00 0.00 0.00 77 1025.7
20260506061541 63 147 0.0 3.5 0.00 0.00 0.00 74 1025.7
20260506044532 65 285 0.0 6.1 0.00 0.00 0.00 69 1025.7
20260506043030 64 279 0.0 4.3 0.00 0.00 0.00 69 1025.7
20260506041529 64 48 0.9 7.0 0.00 0.00 0.00 69 1025.7
20260506040036 64 247 0.0 0.9 0.00 0.00 0.00 68 1025.7
20260506034627 65 257 0.0 8.7 0.00 0.00 0.00 67 1025.7
20260506033026 65 298 0.0 5.2 0.00 0.00 0.00 67 1025.7
20260506031528 65 186 0.0 0.0 0.00 0.00 0.00 67 1025.7
20260506030024 65 185 0.0 0.0 0.00 0.00 0.00 66 1025.7
20260506024528 65 235 0.0 4.3 0.00 0.00 0.00 66 1025.7
20260506023028 64 237 0.0 0.0 0.00 0.00 0.00 67 1025.7
20260506021531 65 235 0.0 0.0 0.00 0.00 0.00 67 1025.7
20260506020022 65 235 0.0 0.0 0.00 0.00 0.00 67 1025.7
20260506014521 65 171 0.0 0.0 0.00 0.00 0.00 66 1025.7
20260506013020 66 171 0.0 0.9 0.00 0.00 0.00 65 1025.7
20260506011521 66 256 0.0 0.9 0.00 0.00 0.00 64 1025.7
20260506010038 67 131 0.0 6.1 0.00 0.00 0.00 63 1025.7
20260506004519 67 247 0.0 6.1 0.00 0.00 0.00 62 1025.7
20260506003019 68 102 0.0 3.5 0.00 0.00 0.00 61 1025.7
20260506001519 69 45 0.0 4.3 0.00 0.00 0.00 59 1025.7
20260506000019 70 183 0.9 4.3 0.00 0.00 0.00 57 1025.7
20260505234532 71 212 0.0 6.1 0.00 0.00 0.00 56 1025.7
20260505233018 72 273 0.0 6.1 0.00 0.00 0.00 55 1025.7
20260505231517 73 258 0.0 4.3 0.00 0.00 0.00 55 1025.7
20260505230016 73 53 0.0 5.2 0.00 0.00 0.00 53 1025.7
20260505224516 74 63 0.0 6.1 0.00 0.00 0.00 52 1025.7
20260505223015 75 274 0.0 6.1 0.00 0.00 0.00 52 1025.7
20260505221515 75 275 0.9 5.2 0.00 0.00 0.00 51 1025.7
20260505220014 77 260 2.6 11.3 0.00 0.00 0.00 48 1025.7
20260505214517 78 268 0.9 7.8 0.00 0.00 0.00 48 1025.7
20260505213013 78 264 0.0 7.8 0.00 0.00 0.00 46 1025.7
20260505211513 79 279 2.6 11.3 0.00 0.00 0.00 45 1025.7
20260505210012 80 24 1.7 6.1 0.00 0.00 0.00 45 1025.7
20260505204511 80 180 2.6 7.0 0.00 0.00 0.00 43 1025.7
20260505203017 82 295 2.6 7.8 0.00 0.00 0.00 42 1025.7
20260505201510 82 229 2.6 7.8 0.00 0.00 0.00 42 1025.7
20260505200108 82 174 0.9 7.0 0.00 0.00 0.00 41 1025.7
20260505194509 82 275 0.0 7.0 0.00 0.00 0.00 44 1025.7
20260505193010 82 254 2.6 7.8 0.00 0.00 0.00 44 1025.7
20260505191507 83 264 2.6 8.7 0.00 0.00 0.00 43 1025.7
20260505190004 83 251 1.7 8.7 0.00 0.00 0.00 44 1025.7
20260505184504 85 268 1.7 4.3 0.00 0.00 0.00 43 1025.7
20260505183002 85 137 2.6 9.6 0.00 0.00 0.00 41 1025.7
20260505181600 85 327 1.7 10.4 0.00 0.00 0.00 38 1025.7
20260505180109 85 69 3.5 8.7 0.00 0.00 0.00 40 1025.7
20260505174605 85 290 1.7 8.7 0.00 0.00 0.00 39 1025.7
20260505173057 85 271 1.7 7.0 0.00 0.00 0.00 40 1025.7
20260505171553 84 315 0.0 5.2 0.00 0.00 0.00 39 1025.7
20260505170053 84 267 1.7 7.0 0.00 0.00 0.00 39 1025.7
20260505164551 84 320 0.0 5.2 0.00 0.00 0.00 38 1025.7
20260505163049 82 350 0.0 7.8 0.00 0.00 0.00 41 1025.7
20260505161545 81 273 0.9 6.1 0.00 0.00 0.00 45 1025.7
20260505153034 78 31 0.0 5.2 0.00 0.00 0.00 49 1025.7
20260505151532 76 277 0.0 4.3 0.00 0.00 0.00 53 1025.7
20260505124504 65 253 0.0 3.5 0.00 0.00 0.00 67 1025.7
20260505123001 64 325 0.0 1.7 0.00 0.00 0.00 68 1025.7
20260505121558 63 251 0.0 6.1 0.00 0.00 0.00 70 1025.7
20260505120053 61 271 0.0 0.9 0.00 0.00 0.00 74 1025.7
20260505114549 59 236 0.0 0.0 0.00 0.00 0.00 75 1025.7
20260505113045 58 235 0.0 3.5 0.00 0.00 0.00 78 1025.7
20260505111543 57 246 0.0 5.2 0.00 0.00 0.00 79 1025.7